{"data":{"norad_id":64563,"intl_designator":"2025-135AM","name":"AE3VA","alt_names":[],"object_type":"PAYLOAD","status":"ACTIVE","operator":null,"country":"JPN","launch_date":"2025-06-23","launch_site_code":"AFWTR","launch_vehicle":null,"mission":null,"orbit_class":"UNKNOWN","rcs_meters":null,"size_class":null,"mass_kg":null,"dimensions":null,"purposes":[],"wikipedia_slug":null,"has_3d_model":false,"image_url":null,"decayed_at":null,"tle_current":{"epoch":"2026-09-21T18:27:05.415552Z","epoch_age_seconds":72119,"freshness":"FRESH","line1":"1 64563U 25135AM  26264.76881268  .00003419  00000+0  29375-3 0  9991","line2":"2 64563  97.7745  19.1656 0002031 325.6049  34.5042 14.98108044 68391","mean_motion":14.98108044,"eccentricity":0.0002031,"inclination_deg":97.7745,"raan_deg":19.1656,"arg_perigee_deg":325.6049,"mean_anomaly_deg":34.5042,"bstar":0.00029375,"rev_number":6839,"period_min":96.121238102103,"perigee_km":571.33063271026,"apogee_km":574.15407990479,"semimajor_km":6950.8793563075,"source":"CELESTRAK","updated_at":"2026-09-22T09:00:29.848408Z"}}}